[[{"header":{"parameterUnit":"m.s-1","parameterCategory":1,"la1":30.2991,"la2":30.254,"lo1":-89.0895,"lo2":-89.0444,"dy":0.0017,"dx":0.0017,"nx":28,"ny":28,"refTime":"2024-06-23T03:00:00:Z","depth":0,"parameterNumber":2,"parameterNumberName":"U-component_of_WINDS"},"data":[0,0,0,0,0,0,0,0,0,0,0,0,0,0,0,0,0,0,0,0,0,0,0,0,0,0,0,0,0,0,0,0,0,0,0,0,0,0,0,0,0,0,0,0,0,0,0,0,0,0,0,0,0,0,0,0,0,0,-0.8413,-0.8412,0,-0.8315,-0.8314,-0.8313,-0.8252,-0.8251,-0.8251,-0.8251,-0.8149,-0.8146,-0.8144,0,0,0,0,0,0,0,0,0,0,0,0,0,-0.855,-0.8547,-0.8413,-0.8412,-0.8411,-0.8315,-0.8314,-0.8312,-0.8252,-0.8251,-0.8251,-0.825,-0.815,-0.8147,-0.8144,0,0,0,0,0,0,0,0,0,0,0,0,0,-0.8475,-0.8547,-0.8414,-0.8369,-0.8364,-0.8315,-0.8314,-0.8312,-0.8252,-0.8251,-0.8251,-0.825,-0.815,-0.8147,-0.8143,-0.8131,0,0,-0.8132,-0.8131,0,0,0,0,0,0,0,0,-0.8479,-0.847,-0.8377,-0.8372,-0.8366,-0.8295,-0.8324,-0.8251,-0.8252,-0.8294,-0.8251,-0.825,-0.8198,-0.819,-0.8173,-0.8126,-0.8122,-0.8132,-0.813,-0.8128,-0.8127,0,0,0,0,0,0,0,-0.8484,-0.8474,-0.8374,-0.8376,-0.8369,-0.8354,-0.8343,-0.831,-0.825,-0.8291,-0.8286,-0.8275,-0.8195,-0.8176,-0.817,-0.812,-0.8132,-0.8129,-0.8127,-0.8125,-0.8061,-0.8061,0,0,0,0,0,0,-0.8497,-0.8478,-0.8377,-0.8371,-0.8423,-0.8352,-0.834,-0.8318,-0.825,-0.8239,-0.8276,-0.8273,-0.8183,-0.8174,-0.8166,-0.8148,-0.8128,-0.8125,-0.8123,-0.806,-0.8061,-0.8061,0,0,0,0,0,0,-0.85,-0.8488,-0.8381,-0.8424,-0.8409,-0.835,-0.8327,-0.8317,-0.8298,-0.8239,-0.8228,-0.8268,-0.8182,-0.8171,-0.8141,-0.8144,-0.8123,-0.812,-0.806,-0.806,-0.8061,-0.8111,0,0,0,0,0,0,-0.8504,-0.849,-0.8484,-0.8424,-0.8407,-0.8357,-0.8327,-0.8315,-0.8292,-0.8287,-0.8229,-0.8218,-0.8181,-0.8146,-0.8137,-0.8138,-0.8117,-0.8059,-0.806,-0.8061,-0.8109,-0.8114,-0.8117,0,0,0,0,0,-0.8509,-0.8501,-0.8484,-0.8472,-0.8398,-0.8358,-0.8348,-0.8305,-0.8293,-0.8287,-0.8249,-0.822,-0.8145,-0.8144,-0.8133,-0.8133,-0.8059,-0.806,-0.8061,-0.8107,-0.8113,-0.8117,0,0,0,0,0,0,-0.8562,-0.8492,-0.8472,-0.8445,-0.8408,-0.8347,-0.8338,-0.8312,-0.8277,-0.8274,-0.8222,-0.821,-0.8185,-0.8156,-0.8155,-0.8118,-0.8099,-0.8098,-0.8138,-0.8143,-0.8147,-0.8154,-0.8114,0,0,0,0,0,-0.8571,-0.8543,-0.8484,-0.8466,-0.8448,-0.8397,-0.8377,-0.8348,-0.8307,-0.8291,-0.8251,-0.8212,-0.818,-0.816,-0.8127,-0.8105,-0.8092,-0.81,-0.8104,-0.8108,-0.8107,-0.8095,-0.8099,-0.8065,-0.8065,-0.8065,0,0,-0.8588,-0.8546,-0.8532,-0.8475,-0.8443,-0.8416,-0.8384,-0.8356,-0.8336,-0.8287,-0.8255,-0.8225,-0.8179,-0.8154,-0.814,-0.8129,-0.8114,-0.8109,-0.8113,-0.811,-0.8097,-0.81,-0.8103,-0.8065,-0.8065,-0.8065,0,0,-0.8605,-0.8571,-0.8553,-0.8522,-0.8474,-0.844,-0.8436,-0.838,-0.8358,-0.8327,-0.829,-0.8265,-0.8211,-0.818,-0.8157,-0.8167,-0.8139,-0.8157,-0.8179,-0.8168,-0.817,-0.8172,-0.8176,-0.8178,-0.8157,-0.8157,-0.8157,0,-0.8632,-0.859,-0.8546,-0.8522,-0.8499,-0.8454,-0.8436,-0.8408,-0.8351,-0.8336,-0.8325,-0.8257,-0.8222,-0.819,-0.8193,-0.8175,-0.8169,-0.8163,-0.8174,-0.8175,-0.8176,-0.818,-0.8181,-0.816,-0.8159,-0.8159,-0.8159,0,-0.8627,-0.8599,-0.859,-0.8538,-0.8513,-0.8492,-0.8446,-0.8426,-0.84,-0.8368,-0.8338,-0.8296,-0.8254,-0.8244,-0.8217,-0.8208,-0.8203,-0.8183,-0.8162,-0.8183,-0.8185,-0.8186,-0.8163,-0.8162,-0.8162,-0.8161,0,0,-0.8672,-0.8599,-0.8596,-0.8573,-0.8518,-0.8495,-0.8473,-0.8433,-0.8418,-0.8382,-0.8362,-0.8319,-0.8301,-0.8275,-0.8245,-0.8235,-0.8247,-0.8217,-0.8215,-0.8224,-0.8236,-0.8251,-0.8253,-0.8229,-0.8229,-0.8229,-0.824,0,-0.8682,-0.8639,-0.86,-0.8572,-0.8546,-0.8505,-0.8486,-0.845,-0.8421,-0.8395,-0.8362,-0.8332,-0.831,-0.8295,-0.8284,-0.8248,-0.8249,-0.8247,-0.8211,-0.821,-0.8223,-0.8254,-0.8269,-0.8281,-0.824,-0.824,-0.824,0,-0.8687,-0.8653,-0.8623,-0.8573,-0.856,-0.8543,-0.8505,-0.8481,-0.8441,-0.842,-0.8393,-0.8362,-0.8337,-0.8321,-0.8286,-0.8286,-0.827,-0.825,-0.825,-0.8244,-0.8226,-0.8249,-0.8283,-0.8285,-0.8241,-0.8241,-0.8241,0,-0.8724,-0.8671,-0.8646,-0.8628,-0.8569,-0.8558,-0.8533,-0.8492,-0.8472,-0.8439,-0.8425,-0.8389,-0.837,-0.8343,-0.8304,-0.8295,-0.8274,-0.8254,-0.8257,-0.8258,-0.8253,-0.8254,-0.8285,-0.8243,-0.8243,-0.8243,-0.8243,0,-0.8738,-0.8721,-0.8663,-0.8647,-0.8628,-0.8584,-0.8566,-0.8537,-0.8502,-0.8481,-0.8444,-0.8425,-0.8374,-0.835,-0.8319,-0.8296,-0.8287,-0.827,-0.8262,-0.8273,-0.8276,-0.8261,-0.8259,-0.8244,-0.8243,-0.8243,-0.8243,0,-0.8776,-0.8736,-0.8706,-0.8654,-0.864,-0.8628,-0.8583,-0.8567,-0.8536,-0.8511,-0.8502,-0.8454,-0.8423,-0.8382,-0.8338,-0.8317,-0.8299,-0.8286,-0.8312,-0.8308,-0.8313,-0.8313,-0.8335,-0.8337,-0.8295,-0.8295,-0.8296,0,-0.8788,-0.8774,-0.872,-0.8704,-0.868,-0.8654,-0.8633,-0.8591,-0.8571,-0.8526,-0.8516,-0.8482,-0.8453,-0.8407,-0.8368,-0.8335,-0.8321,-0.8331,-0.8316,-0.8328,-0.8322,-0.8323,-0.8322,-0.8335,-0.8336,-0.8336,-0.8337,0,-0.8813,-0.8794,-0.8766,-0.8731,-0.8708,-0.8679,-0.8648,-0.8636,-0.8587,-0.8567,-0.8536,-0.8514,-0.847,-0.8438,-0.8401,-0.8375,-0.8348,-0.8342,-0.8341,-0.8352,-0.8368,-0.836,-0.8323,-0.8342,-0.8341,-0.8341,-0.834,-0.834,-0.8838,-0.8824,-0.8785,-0.8755,-0.8728,-0.87,-0.8683,-0.8651,-0.8625,-0.8586,-0.8563,-0.8533,-0.8496,-0.8442,-0.8419,-0.8395,-0.8384,-0.8382,-0.8382,-0.8382,-0.8386,-0.8373,-0.8388,-0.8388,-0.8388,-0.8387,-0.8387,0,-0.8861,-0.8835,-0.8808,-0.8766,-0.8744,-0.8721,-0.8686,-0.8669,-0.8643,-0.8611,-0.8584,-0.8549,-0.8518,-0.8478,-0.8445,-0.8434,-0.8421,-0.8427,-0.8427,-0.8422,-0.8398,-0.8402,-0.8438,-0.8438,-0.8438,-0.8438,-0.8438,-0.8438,-0.8871,-0.8847,-0.8825,-0.8788,-0.8761,-0.8732,-0.8714,-0.8689,-0.8663,-0.8626,-0.8601,-0.8575,-0.854,-0.8504,-0.8476,-0.8465,-0.8455,-0.8464,-0.845,-0.8428,-0.8423,-0.8419,-0.8423,-0.8462,-0.8462,-0.8476,-0.8476,-0.8476]},{"header":{"parameterUnit":"m.s-1","parameterCategory":1,"la1":30.2991,"la2":30.254,"lo1":-89.0895,"lo2":-89.0444,"dy":0.0017,"dx":0.0017,"nx":28,"ny":28,"refTime":"2024-06-23T03:00:00:Z","depth":0,"parameterNumber":3,"parameterNumberName":"V-component_of_WINDS"},"data":[0,0,0,0,0,0,0,0,0,0,0,0,0,0,0,0,0,0,0,0,0,0,0,0,0,0,0,0,0,0,0,0,0,0,0,0,0,0,0,0,0,0,0,0,0,0,0,0,0,0,0,0,0,0,0,0,0,0,3.4058,3.4058,0,3.4052,3.4052,3.4052,3.4091,3.4092,3.4093,3.4094,3.4083,3.4082,3.408,0,0,0,0,0,0,0,0,0,0,0,0,0,3.4099,3.4098,3.4058,3.4058,3.4058,3.4052,3.4052,3.4052,3.4091,3.4092,3.4094,3.4095,3.4083,3.4082,3.408,0,0,0,0,0,0,0,0,0,0,0,0,0,3.4085,3.4097,3.4058,3.4077,3.4079,3.4052,3.4052,3.4052,3.4091,3.4092,3.4094,3.4096,3.4084,3.4082,3.408,3.4034,0,0,3.4074,3.4073,0,0,0,0,0,0,0,0,3.4086,3.4084,3.4074,3.4076,3.4077,3.4074,3.4062,3.4046,3.409,3.4086,3.4095,3.4096,3.4078,3.4077,3.4072,3.4033,3.4033,3.4073,3.4072,3.4071,3.4071,0,0,0,0,0,0,0,3.4087,3.4084,3.4056,3.4074,3.4076,3.4084,3.4084,3.4059,3.4072,3.4086,3.4089,3.4088,3.4079,3.4074,3.4072,3.4032,3.4073,3.4072,3.407,3.407,3.3956,3.3954,0,0,0,0,0,0,3.4086,3.4085,3.4056,3.4056,3.4086,3.4082,3.4082,3.4073,3.4073,3.4075,3.4087,3.409,3.4076,3.4074,3.4072,3.4018,3.4071,3.4069,3.4068,3.3958,3.3955,3.3953,0,0,0,0,0,0,3.4087,3.4083,3.4056,3.4071,3.4068,3.408,3.407,3.4072,3.4067,3.4073,3.4075,3.4079,3.4078,3.4074,3.4043,3.4018,3.4069,3.4067,3.396,3.3957,3.3954,3.3909,0,0,0,0,0,0,3.4088,3.4083,3.4067,3.407,3.4067,3.4029,3.4068,3.4071,3.4064,3.4068,3.4066,3.4068,3.4079,3.4046,3.4041,3.4016,3.4065,3.3962,3.3959,3.3955,3.3913,3.3906,3.3899,0,0,0,0,0,3.4089,3.4053,3.4066,3.4062,3.4047,3.4028,3.4026,3.4041,3.4062,3.4045,3.4049,3.4068,3.4022,3.4043,3.4037,3.4011,3.3964,3.3959,3.3956,3.3916,3.3907,3.3899,0,0,0,0,0,0,3.4044,3.4054,3.4068,3.4032,3.4029,3.4034,3.4013,3.403,3.4019,3.4023,3.4041,3.404,3.4006,3.4005,3.4029,3.3967,3.3996,3.3991,3.3968,3.3959,3.3952,3.3953,3.4063,0,0,0,0,0,3.403,3.4015,3.4024,3.3991,3.3989,3.4002,3.3993,3.4006,3.4002,3.4,3.4002,3.3997,3.3981,3.397,3.3956,3.3914,3.3913,3.3893,3.3886,3.388,3.3875,3.3852,3.3843,3.394,3.394,3.394,0,0,3.4001,3.4004,3.3993,3.3983,3.3981,3.3964,3.4,3.398,3.3967,3.3997,3.3968,3.3969,3.3964,3.3927,3.3911,3.3926,3.3848,3.3875,3.387,3.3868,3.3847,3.3838,3.383,3.3937,3.3938,3.3938,0,0,3.3939,3.394,3.3914,3.3912,3.3911,3.392,3.3913,3.3916,3.3919,3.3891,3.3913,3.3897,3.3869,3.3865,3.3859,3.3797,3.3813,3.3791,3.3754,3.3732,3.3724,3.3717,3.3695,3.3686,3.3786,3.3786,3.3786,0,3.3902,3.3878,3.3897,3.3876,3.387,3.3899,3.3872,3.3869,3.3862,3.3857,3.3874,3.3841,3.3839,3.3802,3.3787,3.3781,3.3774,3.3791,3.3724,3.3717,3.3711,3.369,3.3681,3.3784,3.3784,3.3784,3.3784,0,3.3833,3.3816,3.3794,3.379,3.3782,3.3757,3.3771,3.376,3.3773,3.378,3.375,3.375,3.3737,3.3729,3.374,3.3693,3.3702,3.3721,3.3751,3.3699,3.3679,3.3671,3.378,3.3781,3.3782,3.3782,0,0,3.3741,3.3748,3.374,3.3738,3.374,3.3726,3.3703,3.3692,3.3682,3.3676,3.3657,3.3633,3.3652,3.3645,3.3656,3.3637,3.3587,3.3658,3.3659,3.3645,3.3535,3.352,3.351,3.3599,3.3597,3.3596,3.3535,0,3.368,3.3643,3.366,3.362,3.3604,3.3631,3.3611,3.3609,3.3614,3.36,3.3606,3.3589,3.3614,3.3611,3.3593,3.3597,3.3565,3.3602,3.3579,3.3578,3.3579,3.35,3.3484,3.3427,3.3527,3.3526,3.3525,0,3.3604,3.3598,3.3557,3.3562,3.3556,3.3537,3.3529,3.3516,3.3513,3.3519,3.3512,3.3528,3.3504,3.3535,3.3501,3.3526,3.3518,3.3518,3.3516,3.3514,3.3548,3.3495,3.3409,3.34,3.3513,3.3514,3.3515,0,3.3541,3.3522,3.3495,3.3493,3.3498,3.3484,3.3485,3.3485,3.3477,3.3469,3.3465,3.3453,3.3446,3.3436,3.3448,3.3469,3.3413,3.3445,3.3416,3.3415,3.3402,3.3402,3.3312,3.3397,3.3397,3.3398,3.3398,0,3.3471,3.3445,3.3467,3.3451,3.3422,3.3441,3.3411,3.3415,3.3415,3.3399,3.3421,3.3405,3.3422,3.3407,3.3415,3.3386,3.3383,3.3386,3.3388,3.3384,3.3383,3.3378,3.3382,3.3395,3.3396,3.3396,3.3397,0,3.3395,3.341,3.3382,3.339,3.3391,3.3369,3.3375,3.3359,3.3367,3.3346,3.3342,3.3353,3.3337,3.3348,3.3331,3.3337,3.3299,3.3307,3.33,3.3302,3.3273,3.3275,3.3176,3.3163,3.3256,3.3256,3.3255,0,3.335,3.3331,3.3337,3.3329,3.3329,3.3315,3.3308,3.3326,3.3317,3.3314,3.3298,3.3284,3.3274,3.3246,3.3252,3.3239,3.3246,3.3213,3.3244,3.324,3.3245,3.3246,3.3244,3.3206,3.3205,3.3204,3.3203,0,3.3267,3.3275,3.3266,3.3258,3.325,3.3244,3.324,3.3232,3.325,3.3239,3.3224,3.3216,3.32,3.3185,3.3175,3.3174,3.3191,3.3193,3.3186,3.318,3.3177,3.3178,3.3282,3.3195,3.3196,3.3196,3.3197,3.3197,3.3205,3.3189,3.3192,3.318,3.3179,3.3175,3.3161,3.3168,3.3156,3.3146,3.3157,3.3138,3.3136,3.3124,3.3121,3.3106,3.312,3.3109,3.3106,3.3103,3.3099,3.318,3.3104,3.3104,3.3105,3.3105,3.3105,0,3.3123,3.3127,3.3116,3.3111,3.3101,3.3121,3.3117,3.3107,3.3091,3.3089,3.3079,3.3062,3.3048,3.3053,3.304,3.3027,3.3034,3.3023,3.3024,3.3023,3.3087,3.3095,3.3017,3.3017,3.3017,3.3017,3.3017,3.3017,3.308,3.3054,3.3063,3.3037,3.3041,3.3024,3.3021,3.3017,3.3015,3.2995,3.2985,3.2989,3.2989,3.2977,3.2965,3.2967,3.2961,3.2946,3.2951,3.301,3.3019,3.3027,3.3034,3.2945,3.2945,3.2888,3.2887,3.2887]}]]